| time (UTC) | temp F | wind direction | speed MPH | gust MPH | rain 1hr in | rain 24hr in | rain mn in | humidity % | barometer mb |
| 20260506023056 | 57 | 190 | 2.0 | 10.0 | 0.00 | 0.20 | 0.11 | 86 | 1016.7 |
| 20260506022555 | 58 | 258 | 3.0 | 9.0 | 0.00 | 0.20 | 0.11 | 86 | 1016.6 |
| 20260506022056 | 58 | 216 | 2.0 | 10.0 | 0.00 | 0.20 | 0.11 | 86 | 1016.7 |
| 20260506021558 | 58 | 212 | 3.0 | 10.0 | 0.00 | 0.20 | 0.11 | 85 | 1016.6 |
| 20260506021056 | 58 | 240 | 3.0 | 10.0 | 0.00 | 0.20 | 0.11 | 85 | 1016.5 |
| 20260506020556 | 58 | 219 | 1.0 | 8.0 | 0.00 | 0.20 | 0.11 | 85 | 1016.5 |
| 20260506020056 | 58 | 319 | 2.0 | 12.0 | 0.00 | 0.20 | 0.11 | 84 | 1016.4 |
| 20260506015555 | 58 | 0 | 3.0 | 12.0 | 0.00 | 0.20 | 0.11 | 84 | 1016.4 |
| 20260506015055 | 59 | 228 | 3.0 | 11.0 | 0.00 | 0.20 | 0.11 | 83 | 1016.4 |
| 20260506014600 | 59 | 210 | 2.0 | 13.0 | 0.00 | 0.20 | 0.11 | 84 | 1016.3 |
| 20260506014056 | 58 | 273 | 3.0 | 13.0 | 0.00 | 0.20 | 0.11 | 83 | 1016.3 |
| 20260506013554 | 59 | 271 | 2.0 | 10.0 | 0.00 | 0.20 | 0.11 | 83 | 1016.2 |
| 20260506013100 | 59 | 40 | 2.0 | 10.0 | 0.00 | 0.20 | 0.11 | 84 | 1016.2 |
| 20260506012556 | 59 | 234 | 2.0 | 11.0 | 0.00 | 0.20 | 0.11 | 84 | 1016.3 |
| 20260506012056 | 59 | 197 | 4.0 | 11.0 | 0.00 | 0.20 | 0.11 | 83 | 1016.3 |
| 20260506011558 | 59 | 219 | 2.0 | 10.0 | 0.00 | 0.20 | 0.11 | 83 | 1016.4 |
| 20260506011054 | 58 | 229 | 3.0 | 11.0 | 0.00 | 0.20 | 0.11 | 82 | 1016.4 |
| 20260506010555 | 59 | 255 | 3.0 | 11.0 | 0.00 | 0.20 | 0.11 | 82 | 1016.4 |
| 20260506010058 | 59 | 238 | 1.0 | 10.0 | 0.00 | 0.20 | 0.11 | 83 | 1016.3 |
| 20260506005556 | 59 | 269 | 3.0 | 7.0 | 0.00 | 0.20 | 0.11 | 83 | 1016.3 |
| 20260506005054 | 59 | 236 | 2.0 | 9.0 | 0.00 | 0.20 | 0.11 | 83 | 1016.3 |
| 20260506004628 | 59 | 230 | 3.0 | 9.0 | 0.00 | 0.20 | 0.11 | 83 | 1016.3 |
| 20260506004055 | 59 | 300 | 3.0 | 9.0 | 0.00 | 0.20 | 0.11 | 83 | 1016.2 |
| 20260506003555 | 59 | 284 | 2.0 | 9.0 | 0.00 | 0.20 | 0.11 | 83 | 1016.2 |
| 20260506003059 | 59 | 286 | 3.0 | 10.0 | 0.00 | 0.20 | 0.11 | 82 | 1016.0 |
| 20260506002555 | 59 | 304 | 2.0 | 10.0 | 0.00 | 0.20 | 0.11 | 83 | 1016.0 |
| 20260506002059 | 59 | 240 | 2.0 | 13.0 | 0.00 | 0.20 | 0.11 | 84 | 1016.1 |
| 20260506001604 | 59 | 221 | 3.0 | 13.0 | 0.00 | 0.20 | 0.11 | 84 | 1016.0 |
| 20260506001055 | 59 | 319 | 3.0 | 11.0 | 0.00 | 0.20 | 0.11 | 84 | 1016.0 |
| 20260506000555 | 59 | 222 | 4.0 | 11.0 | 0.00 | 0.20 | 0.11 | 84 | 1015.9 |
| 20260506000056 | 58 | 0 | 3.0 | 11.0 | 0.00 | 0.20 | 0.11 | 85 | 1016.0 |
| 20260505235554 | 58 | 213 | 2.0 | 10.0 | 0.00 | 0.20 | 0.11 | 85 | 1016.0 |
| 20260505235054 | 58 | 248 | 3.0 | 10.0 | 0.00 | 0.20 | 0.11 | 85 | 1016.0 |
| 20260505234614 | 58 | 273 | 2.0 | 10.0 | 0.00 | 0.20 | 0.11 | 85 | 1016.1 |
| 20260505234055 | 58 | 239 | 3.0 | 14.0 | 0.00 | 0.20 | 0.11 | 86 | 1016.1 |
| 20260505233554 | 58 | 288 | 3.0 | 14.0 | 0.00 | 0.20 | 0.11 | 86 | 1016.0 |
| 20260505233057 | 58 | 200 | 4.0 | 11.0 | 0.00 | 0.20 | 0.11 | 86 | 1016.0 |
| 20260505232555 | 58 | 235 | 3.0 | 12.0 | 0.00 | 0.20 | 0.11 | 86 | 1016.1 |
| 20260505232055 | 58 | 222 | 4.0 | 12.0 | 0.00 | 0.20 | 0.11 | 85 | 1016.1 |
| 20260505231559 | 59 | 243 | 2.0 | 11.0 | 0.00 | 0.20 | 0.11 | 86 | 1016.0 |
| 20260505231054 | 58 | 186 | 4.0 | 11.0 | 0.00 | 0.20 | 0.11 | 85 | 1016.1 |
| 20260505230555 | 59 | 263 | 2.0 | 11.0 | 0.00 | 0.20 | 0.11 | 86 | 1016.1 |
| 20260505230053 | 59 | 170 | 3.0 | 11.0 | 0.00 | 0.20 | 0.11 | 85 | 1016.0 |
| 20260505225555 | 59 | 211 | 4.0 | 12.0 | 0.00 | 0.20 | 0.11 | 84 | 1016.0 |
| 20260505225055 | 59 | 295 | 2.0 | 12.0 | 0.00 | 0.20 | 0.11 | 84 | 1016.0 |
| 20260505224556 | 59 | 224 | 2.0 | 9.0 | 0.00 | 0.20 | 0.11 | 84 | 1016.0 |
| 20260505224054 | 60 | 219 | 3.0 | 12.0 | 0.00 | 0.20 | 0.11 | 83 | 1016.0 |
| 20260505223554 | 60 | 0 | 2.0 | 12.0 | 0.00 | 0.20 | 0.11 | 84 | 1016.0 |
| 20260505223103 | 60 | 269 | 1.0 | 10.0 | 0.00 | 0.20 | 0.11 | 83 | 1015.9 |
| 20260505222554 | 60 | 305 | 3.0 | 10.0 | 0.00 | 0.20 | 0.11 | 83 | 1016.0 |
| 20260505222054 | 60 | 241 | 2.0 | 9.0 | 0.00 | 0.20 | 0.11 | 84 | 1016.0 |
| 20260505221613 | 60 | 289 | 4.0 | 9.0 | 0.00 | 0.20 | 0.11 | 83 | 1016.0 |
| 20260505221054 | 61 | 193 | 3.0 | 9.0 | 0.00 | 0.20 | 0.11 | 82 | 1016.1 |
| 20260505220558 | 61 | 285 | 1.0 | 9.0 | 0.00 | 0.20 | 0.11 | 84 | 1016.1 |
| 20260505220133 | 61 | 316 | 4.0 | 9.0 | 0.00 | 0.20 | 0.11 | 82 | 1016.1 |
| 20260505215554 | 61 | 293 | 2.0 | 8.0 | 0.00 | 0.20 | 0.11 | 82 | 1016.1 |
| 20260505215055 | 61 | 0 | 2.0 | 13.0 | 0.00 | 0.20 | 0.11 | 83 | 1016.2 |
| 20260505214617 | 60 | 230 | 2.0 | 13.0 | 0.00 | 0.20 | 0.11 | 83 | 1016.2 |
| 20260505214055 | 60 | 244 | 3.0 | 11.0 | 0.00 | 0.20 | 0.11 | 83 | 1016.2 |
| 20260505213558 | 60 | 232 | 2.0 | 11.0 | 0.00 | 0.20 | 0.11 | 83 | 1016.2 |
| 20260505213057 | 60 | 250 | 2.0 | 10.0 | 0.00 | 0.20 | 0.11 | 84 | 1016.3 |
| 20260505212554 | 59 | 234 | 2.0 | 9.0 | 0.00 | 0.20 | 0.11 | 84 | 1016.4 |
| 20260505212056 | 59 | 227 | 2.0 | 9.0 | 0.00 | 0.20 | 0.11 | 84 | 1016.3 |
| 20260505211613 | 59 | 273 | 1.0 | 9.0 | 0.00 | 0.20 | 0.11 | 83 | 1016.4 |
| 20260505211055 | 60 | 254 | 3.0 | 9.0 | 0.00 | 0.20 | 0.11 | 83 | 1016.3 |
| 20260505210554 | 60 | 232 | 0.0 | 10.0 | 0.00 | 0.20 | 0.11 | 84 | 1016.3 |
| 20260505210053 | 59 | 217 | 3.0 | 10.0 | 0.00 | 0.20 | 0.11 | 83 | 1016.3 |
| 20260505205552 | 59 | 347 | 1.0 | 7.0 | 0.00 | 0.20 | 0.11 | 83 | 1016.3 |
| 20260505205055 | 59 | 231 | 2.0 | 10.0 | 0.00 | 0.20 | 0.11 | 83 | 1016.3 |
| 20260505204555 | 59 | 257 | 2.0 | 10.0 | 0.00 | 0.20 | 0.11 | 83 | 1016.3 |
| 20260505204056 | 59 | 219 | 2.0 | 10.0 | 0.00 | 0.20 | 0.11 | 83 | 1016.3 |
| 20260505203555 | 59 | 239 | 4.0 | 10.0 | 0.00 | 0.20 | 0.11 | 82 | 1016.3 |
| 20260505203104 | 59 | 254 | 2.0 | 7.0 | 0.00 | 0.20 | 0.11 | 82 | 1016.3 |
| 20260505202555 | 60 | 212 | 2.0 | 7.0 | 0.00 | 0.20 | 0.11 | 82 | 1016.3 |
| 20260505202057 | 60 | 270 | 1.0 | 7.0 | 0.00 | 0.20 | 0.11 | 82 | 1016.4 |
| 20260505201608 | 60 | 244 | 1.0 | 9.0 | 0.00 | 0.20 | 0.11 | 82 | 1016.4 |
| 20260505201055 | 60 | 0 | 2.0 | 10.0 | 0.00 | 0.20 | 0.11 | 83 | 1016.4 |
| 20260505200555 | 60 | 209 | 2.0 | 10.0 | 0.00 | 0.20 | 0.11 | 83 | 1016.4 |
| 20260505200104 | 60 | 282 | 3.0 | 10.0 | 0.00 | 0.20 | 0.11 | 83 | 1016.4 |
| 20260505195555 | 60 | 221 | 3.0 | 8.0 | 0.00 | 0.20 | 0.11 | 83 | 1016.4 |
| 20260505195055 | 60 | 0 | 3.0 | 7.0 | 0.00 | 0.20 | 0.11 | 84 | 1016.4 |
| 20260505194603 | 60 | 224 | 2.0 | 7.0 | 0.00 | 0.20 | 0.11 | 85 | 1016.4 |
| 20260505194055 | 59 | 232 | 2.0 | 7.0 | 0.00 | 0.20 | 0.11 | 86 | 1016.4 |
| 20260505193555 | 59 | 0 | 1.0 | 9.0 | 0.00 | 0.20 | 0.11 | 85 | 1016.4 |
| 20260505193056 | 59 | 238 | 2.0 | 9.0 | 0.00 | 0.20 | 0.11 | 86 | 1016.5 |
| 20260505192555 | 59 | 247 | 1.0 | 7.0 | 0.00 | 0.20 | 0.11 | 86 | 1016.5 |
| 20260505192057 | 59 | 292 | 3.0 | 7.0 | 0.00 | 0.20 | 0.11 | 86 | 1016.5 |
| 20260505191555 | 59 | 269 | 2.0 | 7.0 | 0.00 | 0.20 | 0.11 | 86 | 1016.4 |
| 20260505191055 | 59 | 250 | 1.0 | 7.0 | 0.00 | 0.20 | 0.11 | 86 | 1016.5 |
| 20260505190554 | 59 | 209 | 2.0 | 7.0 | 0.00 | 0.20 | 0.11 | 86 | 1016.5 |
| 20260505190100 | 59 | 223 | 1.0 | 7.0 | 0.00 | 0.20 | 0.11 | 86 | 1016.5 |
| 20260505185555 | 59 | 247 | 1.0 | 7.0 | 0.00 | 0.20 | 0.11 | 86 | 1016.3 |
| 20260505185056 | 58 | 256 | 2.0 | 5.0 | 0.00 | 0.20 | 0.11 | 86 | 1016.2 |
| 20260505184559 | 59 | 220 | 2.0 | 5.0 | 0.00 | 0.20 | 0.11 | 86 | 1016.3 |
| 20260505184053 | 59 | 229 | 1.0 | 4.0 | 0.00 | 0.20 | 0.11 | 87 | 1016.3 |
| 20260505183552 | 58 | 198 | 1.0 | 4.0 | 0.00 | 0.20 | 0.11 | 88 | 1016.3 |
| 20260505183052 | 58 | 247 | 1.0 | 5.0 | 0.00 | 0.20 | 0.11 | 88 | 1016.3 |
| 20260505182551 | 58 | 226 | 1.0 | 6.0 | 0.00 | 0.20 | 0.11 | 88 | 1016.3 |
| 20260505182054 | 58 | 249 | 1.0 | 6.0 | 0.00 | 0.20 | 0.11 | 88 | 1016.4 |
| 20260505181552 | 58 | 217 | 1.0 | 5.0 | 0.00 | 0.20 | 0.11 | 88 | 1016.3 |
| 20260505181055 | 58 | 246 | 1.0 | 5.0 | 0.00 | 0.20 | 0.11 | 87 | 1016.2 |
| 20260505180553 | 57 | 244 | 0.0 | 8.0 | 0.00 | 0.20 | 0.11 | 87 | 1016.2 |
| 20260505180054 | 57 | 298 | 3.0 | 8.0 | 0.00 | 0.20 | 0.11 | 86 | 1016.2 |
| 20260505175551 | 57 | 293 | 1.0 | 7.0 | 0.00 | 0.20 | 0.11 | 86 | 1016.2 |
| 20260505175054 | 57 | 290 | 1.0 | 9.0 | 0.00 | 0.20 | 0.11 | 87 | 1016.2 |
| 20260505174552 | 56 | 323 | 2.0 | 9.0 | 0.00 | 0.20 | 0.11 | 87 | 1016.1 |
| 20260505174054 | 56 | 215 | 2.0 | 7.0 | 0.00 | 0.20 | 0.11 | 88 | 1016.0 |
| 20260505173554 | 57 | 0 | 1.0 | 7.0 | 0.00 | 0.20 | 0.11 | 89 | 1015.9 |
| 20260505173053 | 57 | 0 | 1.0 | 5.0 | 0.00 | 0.20 | 0.11 | 90 | 1016.0 |
| 20260505172550 | 56 | 288 | 1.0 | 4.0 | 0.00 | 0.20 | 0.11 | 90 | 1016.0 |
| 20260505172053 | 57 | 291 | 0.0 | 5.0 | 0.00 | 0.20 | 0.11 | 91 | 1015.9 |
| 20260505171553 | 57 | 0 | 0.0 | 5.0 | 0.00 | 0.20 | 0.11 | 92 | 1015.9 |
| 20260505171053 | 56 | 0 | 1.0 | 5.0 | 0.00 | 0.20 | 0.11 | 92 | 1015.9 |
| 20260505170554 | 56 | 0 | 1.0 | 5.0 | 0.00 | 0.20 | 0.11 | 93 | 1016.0 |
| 20260505170100 | 56 | 266 | 1.0 | 5.0 | 0.00 | 0.20 | 0.11 | 93 | 1016.0 |
| 20260505165554 | 56 | 232 | 0.0 | 7.0 | 0.00 | 0.20 | 0.11 | 94 | 1016.0 |
| 20260505165053 | 56 | 284 | 1.0 | 7.0 | 0.00 | 0.20 | 0.11 | 94 | 1015.9 |
| 20260505164611 | 55 | 317 | 1.0 | 5.0 | 0.00 | 0.20 | 0.11 | 94 | 1015.9 |
| 20260505164052 | 55 | 0 | 1.0 | 6.0 | 0.00 | 0.20 | 0.11 | 94 | 1015.9 |
| 20260505163551 | 55 | 310 | 0.0 | 6.0 | 0.00 | 0.20 | 0.11 | 94 | 1016.0 |
| 20260505163057 | 55 | 292 | 1.0 | 4.0 | 0.00 | 0.20 | 0.11 | 95 | 1015.9 |
| 20260505162553 | 55 | 0 | 0.0 | 3.0 | 0.00 | 0.20 | 0.11 | 95 | 1016.0 |
| 20260505162052 | 55 | 0 | 0.0 | 3.0 | 0.00 | 0.20 | 0.11 | 95 | 1015.9 |
| 20260505161558 | 55 | 0 | 0.0 | 3.0 | 0.00 | 0.20 | 0.11 | 95 | 1015.9 |
| 20260505161052 | 55 | 0 | 0.0 | 3.0 | 0.00 | 0.20 | 0.11 | 95 | 1015.9 |
| 20260505160552 | 55 | 232 | 0.0 | 3.0 | 0.00 | 0.20 | 0.11 | 95 | 1015.7 |
| 20260505160107 | 55 | 213 | 0.0 | 3.0 | 0.00 | 0.20 | 0.11 | 95 | 1015.8 |
| 20260505153053 | 54 | 248 | 1.0 | 4.0 | 0.00 | 0.20 | 0.11 | 95 | 1015.5 |
| 20260505152555 | 54 | 0 | 0.0 | 4.0 | 0.00 | 0.20 | 0.11 | 95 | 1015.5 |
| 20260505152052 | 54 | 222 | 0.0 | 6.0 | 0.00 | 0.20 | 0.11 | 95 | 1015.5 |
| 20260505151606 | 54 | 298 | 1.0 | 7.0 | 0.00 | 0.20 | 0.11 | 95 | 1015.4 |
| 20260505151055 | 54 | 252 | 1.0 | 7.0 | 0.00 | 0.20 | 0.11 | 95 | 1015.5 |
| 20260505150552 | 54 | 300 | 1.0 | 8.0 | 0.00 | 0.20 | 0.11 | 95 | 1015.5 |
| 20260505140551 | 53 | 0 | 0.0 | 2.0 | 0.00 | 0.20 | 0.11 | 95 | 1015.1 |
| 20260505124603 | 53 | 0 | 0.0 | 5.0 | 0.00 | 0.20 | 0.11 | 96 | 1014.7 |
| 20260505124054 | 53 | 215 | 0.0 | 5.0 | 0.00 | 0.20 | 0.11 | 96 | 1014.9 |
| 20260505123552 | 53 | 222 | 1.0 | 5.0 | 0.00 | 0.20 | 0.11 | 96 | 1014.9 |
| 20260505123053 | 53 | 0 | 0.0 | 5.0 | 0.00 | 0.20 | 0.11 | 96 | 1014.9 |
| 20260505122559 | 52 | 0 | 1.0 | 5.0 | 0.00 | 0.20 | 0.11 | 96 | 1014.9 |
| 20260505122055 | 52 | 229 | 0.0 | 4.0 | 0.00 | 0.20 | 0.11 | 96 | 1014.9 |
| 20260505121553 | 52 | 0 | 0.0 | 4.0 | 0.00 | 0.20 | 0.11 | 96 | 1014.9 |
| 20260505121055 | 52 | 221 | 0.0 | 4.0 | 0.00 | 0.20 | 0.11 | 95 | 1015.0 |
| 20260505120555 | 52 | 0 | 0.0 | 4.0 | 0.00 | 0.20 | 0.11 | 96 | 1014.9 |
| 20260505120058 | 52 | 219 | 0.0 | 3.0 | 0.00 | 0.20 | 0.11 | 95 | 1015.0 |
| 20260505115557 | 52 | 0 | 0.0 | 3.0 | 0.00 | 0.20 | 0.11 | 95 | 1014.9 |
| 20260505115054 | 52 | 0 | 0.0 | 2.0 | 0.00 | 0.20 | 0.11 | 95 | 1014.9 |
| 20260505114554 | 52 | 0 | 0.0 | 2.0 | 0.00 | 0.20 | 0.11 | 95 | 1014.7 |
| 20260505114055 | 52 | 0 | 0.0 | 2.0 | 0.00 | 0.20 | 0.11 | 95 | 1014.7 |
| 20260505113554 | 53 | 0 | 0.0 | 3.0 | 0.00 | 0.20 | 0.11 | 96 | 1014.7 |
| 20260505113056 | 52 | 156 | 1.0 | 3.0 | 0.00 | 0.20 | 0.11 | 96 | 1014.9 |
| 20260505112556 | 53 | 0 | 0.0 | 2.0 | 0.00 | 0.20 | 0.11 | 96 | 1014.9 |
| 20260505112056 | 52 | 0 | 0.0 | 2.0 | 0.00 | 0.20 | 0.11 | 95 | 1014.9 |
| 20260505111554 | 52 | 0 | 0.0 | 3.0 | 0.00 | 0.20 | 0.11 | 95 | 1015.0 |
| 20260505111056 | 52 | 0 | 1.0 | 3.0 | 0.00 | 0.20 | 0.11 | 96 | 1015.0 |
| 20260505110554 | 52 | 111 | 0.0 | 2.0 | 0.00 | 0.20 | 0.11 | 96 | 1015.2 |
| 20260505110107 | 52 | 103 | 1.0 | 4.0 | 0.00 | 0.20 | 0.11 | 96 | 1015.2 |
| 20260505102054 | 53 | 90 | 1.0 | 2.0 | 0.01 | 0.20 | 0.11 | 95 | 1015.1 |
| 20260505101555 | 53 | 0 | 0.0 | 2.0 | 0.01 | 0.20 | 0.11 | 95 | 1015.0 |
| 20260505101054 | 53 | 0 | 0.0 | 3.0 | 0.01 | 0.20 | 0.11 | 95 | 1015.0 |
| 20260505100554 | 53 | 117 | 1.0 | 3.0 | 0.01 | 0.20 | 0.11 | 95 | 1014.9 |
| 20260505100055 | 52 | 123 | 2.0 | 3.0 | 0.01 | 0.20 | 0.11 | 95 | 1015.0 |
| 20260505095554 | 52 | 112 | 1.0 | 3.0 | 0.02 | 0.20 | 0.11 | 95 | 1015.1 |
| 20260505095056 | 52 | 107 | 0.0 | 3.0 | 0.02 | 0.20 | 0.11 | 95 | 1015.1 |
| 20260505094554 | 52 | 132 | 1.0 | 3.0 | 0.02 | 0.20 | 0.11 | 95 | 1015.2 |
| 20260505094055 | 52 | 0 | 1.0 | 3.0 | 0.01 | 0.19 | 0.10 | 95 | 1015.2 |
| 20260505093555 | 52 | 144 | 0.0 | 3.0 | 0.01 | 0.19 | 0.10 | 95 | 1015.3 |
| 20260505093053 | 52 | 145 | 0.0 | 2.0 | 0.01 | 0.19 | 0.10 | 95 | 1015.4 |
| 20260505092557 | 52 | 146 | 1.0 | 3.0 | 0.01 | 0.19 | 0.10 | 95 | 1015.5 |
| 20260505092056 | 52 | 0 | 1.0 | 4.0 | 0.01 | 0.19 | 0.10 | 95 | 1015.4 |
| 20260505091608 | 52 | 158 | 1.0 | 4.0 | 0.02 | 0.19 | 0.10 | 95 | 1015.4 |
| 20260505091055 | 52 | 165 | 1.0 | 4.0 | 0.02 | 0.19 | 0.10 | 95 | 1015.4 |
| 20260505090555 | 52 | 161 | 1.0 | 2.0 | 0.03 | 0.19 | 0.10 | 95 | 1015.4 |
| 20260505090109 | 52 | 185 | 0.0 | 2.0 | 0.04 | 0.19 | 0.10 | 94 | 1015.6 |
| 20260505085556 | 52 | 0 | 0.0 | 2.0 | 0.03 | 0.18 | 0.09 | 94 | 1015.6 |
| 20260505085057 | 52 | 0 | 0.0 | 0.0 | 0.03 | 0.18 | 0.09 | 94 | 1015.6 |
| 20260505084558 | 52 | 0 | 0.0 | 0.0 | 0.04 | 0.18 | 0.09 | 94 | 1015.7 |
| 20260505084055 | 52 | 0 | 0.0 | 0.0 | 0.05 | 0.18 | 0.09 | 94 | 1015.6 |
| 20260505083555 | 52 | 0 | 0.0 | 0.0 | 0.06 | 0.18 | 0.09 | 94 | 1015.7 |
| 20260505083100 | 52 | 0 | 0.0 | 0.0 | 0.07 | 0.18 | 0.09 | 94 | 1015.6 |
| 20260505082556 | 52 | 0 | 0.0 | 2.0 | 0.07 | 0.18 | 0.09 | 94 | 1015.7 |
| 20260505082056 | 52 | 0 | 0.0 | 2.0 | 0.08 | 0.18 | 0.09 | 94 | 1015.6 |
| 20260505081557 | 52 | 144 | 0.0 | 2.0 | 0.07 | 0.17 | 0.08 | 94 | 1015.6 |
| 20260505081055 | 52 | 0 | 0.0 | 0.0 | 0.07 | 0.17 | 0.08 | 94 | 1015.6 |
| 20260505080553 | 52 | 0 | 0.0 | 0.0 | 0.07 | 0.16 | 0.07 | 94 | 1015.7 |
| 20260505080107 | 52 | 0 | 0.0 | 0.0 | 0.06 | 0.15 | 0.06 | 94 | 1015.7 |
| 20260505075556 | 52 | 0 | 0.0 | 0.0 | 0.06 | 0.15 | 0.06 | 94 | 1015.8 |
| 20260505075055 | 52 | 0 | 0.0 | 0.0 | 0.06 | 0.15 | 0.06 | 94 | 1015.9 |
| 20260505074554 | 52 | 0 | 0.0 | 0.0 | 0.05 | 0.14 | 0.05 | 94 | 1015.9 |
| 20260505074056 | 52 | 0 | 0.0 | 0.0 | 0.05 | 0.13 | 0.04 | 93 | 1015.8 |
| 20260505073556 | 52 | 0 | 0.0 | 0.0 | 0.04 | 0.12 | 0.03 | 93 | 1015.8 |
| 20260505073100 | 52 | 0 | 0.0 | 0.0 | 0.03 | 0.11 | 0.02 | 93 | 1015.7 |
| 20260505072556 | 52 | 0 | 0.0 | 0.0 | 0.03 | 0.11 | 0.02 | 93 | 1015.8 |
| 20260505072053 | 52 | 0 | 0.0 | 0.0 | 0.02 | 0.10 | 0.01 | 93 | 1015.9 |
| 20260505071556 | 52 | 0 | 0.0 | 0.0 | 0.02 | 0.10 | 0.01 | 93 | 1016.1 |
| 20260505071056 | 52 | 0 | 0.0 | 0.0 | 0.02 | 0.10 | 0.01 | 93 | 1016.1 |
| 20260505070556 | 52 | 0 | 0.0 | 0.0 | 0.02 | 0.09 | 0.00 | 93 | 1016.1 |
| 20260505070057 | 52 | 0 | 0.0 | 0.0 | 0.02 | 0.09 | 0.00 | 93 | 1016.2 |
| 20260505065556 | 52 | 0 | 0.0 | 0.0 | 0.02 | 0.09 | 0.09 | 93 | 1016.0 |
| 20260505065055 | 52 | 0 | 0.0 | 0.0 | 0.03 | 0.09 | 0.09 | 92 | 1016.0 |
| 20260505064600 | 52 | 0 | 0.0 | 0.0 | 0.03 | 0.09 | 0.09 | 92 | 1015.9 |
| 20260505064055 | 52 | 0 | 0.0 | 1.0 | 0.03 | 0.08 | 0.08 | 92 | 1015.8 |
| 20260505063555 | 52 | 0 | 0.0 | 2.0 | 0.03 | 0.08 | 0.08 | 92 | 1015.7 |
| 20260505063114 | 52 | 0 | 0.0 | 3.0 | 0.04 | 0.08 | 0.08 | 92 | 1015.7 |
| 20260505062556 | 52 | 32 | 1.0 | 3.0 | 0.04 | 0.08 | 0.08 | 92 | 1015.6 |
| 20260505062055 | 52 | 0 | 1.0 | 3.0 | 0.04 | 0.08 | 0.08 | 91 | 1015.6 |
| 20260505061558 | 52 | 305 | 0.0 | 3.0 | 0.04 | 0.08 | 0.08 | 91 | 1015.6 |
| 20260505061124 | 52 | 323 | 1.0 | 5.0 | 0.05 | 0.08 | 0.08 | 91 | 1015.6 |
| 20260505060555 | 52 | 300 | 2.0 | 5.0 | 0.04 | 0.07 | 0.07 | 91 | 1015.7 |
| 20260505060059 | 52 | 312 | 2.0 | 5.0 | 0.04 | 0.07 | 0.07 | 91 | 1015.7 |
| 20260505055553 | 52 | 349 | 1.0 | 5.0 | 0.05 | 0.07 | 0.07 | 91 | 1015.8 |
| 20260505055053 | 53 | 355 | 2.0 | 6.0 | 0.04 | 0.06 | 0.06 | 91 | 1015.9 |
| 20260505054609 | 53 | 315 | 2.0 | 6.0 | 0.04 | 0.05 | 0.05 | 91 | 1015.9 |
| 20260505054053 | 53 | 0 | 2.0 | 4.0 | 0.04 | 0.05 | 0.05 | 91 | 1015.9 |
| 20260505053551 | 53 | 299 | 2.0 | 4.0 | 0.05 | 0.05 | 0.05 | 91 | 1015.8 |
| 20260505053100 | 53 | 303 | 0.0 | 2.0 | 0.04 | 0.04 | 0.04 | 91 | 1015.8 |
| 20260505052551 | 53 | 0 | 0.0 | 0.0 | 0.04 | 0.04 | 0.04 | 91 | 1015.7 |
| 20260505052053 | 53 | 0 | 0.0 | 2.0 | 0.04 | 0.04 | 0.04 | 90 | 1015.7 |
| 20260505051557 | 53 | 0 | 0.0 | 3.0 | 0.04 | 0.04 | 0.04 | 90 | 1015.6 |
| 20260505051052 | 53 | 299 | 0.0 | 4.0 | 0.03 | 0.03 | 0.03 | 90 | 1015.8 |
| 20260505050553 | 53 | 299 | 2.0 | 4.0 | 0.03 | 0.03 | 0.03 | 90 | 1015.9 |
| 20260505041558 | 55 | 349 | 2.0 | 6.0 | 0.00 | 0.00 | 0.00 | 86 | 1016.2 |
| 20260505041054 | 55 | 340 | 3.0 | 6.0 | 0.00 | 0.00 | 0.00 | 86 | 1016.1 |
| 20260505040554 | 55 | 314 | 2.0 | 7.0 | 0.00 | 0.00 | 0.00 | 86 | 1016.1 |
| 20260505040058 | 55 | 319 | 3.0 | 7.0 | 0.00 | 0.00 | 0.00 | 85 | 1015.9 |
| 20260505035552 | 55 | 294 | 3.0 | 8.0 | 0.00 | 0.00 | 0.00 | 85 | 1015.8 |
| 20260505035057 | 56 | 302 | 2.0 | 8.0 | 0.00 | 0.00 | 0.00 | 86 | 1015.7 |
| 20260505034552 | 56 | 306 | 2.0 | 6.0 | 0.00 | 0.00 | 0.00 | 85 | 1015.6 |
| 20260505034056 | 56 | 287 | 1.0 | 5.0 | 0.00 | 0.00 | 0.00 | 86 | 1015.5 |
| 20260505033555 | 56 | 0 | 1.0 | 5.0 | 0.00 | 0.00 | 0.00 | 86 | 1015.3 |
| 20260505033054 | 56 | 0 | 1.0 | 5.0 | 0.00 | 0.00 | 0.00 | 86 | 1015.1 |
| 20260505032553 | 56 | 311 | 3.0 | 5.0 | 0.00 | 0.00 | 0.00 | 85 | 1015.2 |
| 20260505032051 | 56 | 306 | 1.0 | 5.0 | 0.00 | 0.00 | 0.00 | 85 | 1015.1 |
| 20260505031605 | 56 | 335 | 1.0 | 6.0 | 0.00 | 0.00 | 0.00 | 85 | 1015.1 |
| 20260505031052 | 56 | 333 | 2.0 | 6.0 | 0.00 | 0.00 | 0.00 | 85 | 1015.0 |
| 20260505030552 | 56 | 320 | 1.0 | 4.0 | 0.00 | 0.00 | 0.00 | 84 | 1015.0 |
| 20260505030053 | 56 | 325 | 1.0 | 6.0 | 0.00 | 0.00 | 0.00 | 83 | 1015.0 |
| 20260505025551 | 56 | 300 | 2.0 | 6.0 | 0.00 | 0.00 | 0.00 | 83 | 1015.1 |
| 20260505025052 | 56 | 302 | 3.0 | 6.0 | 0.00 | 0.00 | 0.00 | 82 | 1015.0 |
| 20260505024603 | 56 | 304 | 3.0 | 8.0 | 0.00 | 0.00 | 0.00 | 82 | 1015.0 |
| 20260505024051 | 57 | 309 | 3.0 | 8.0 | 0.00 | 0.00 | 0.00 | 82 | 1015.1 |
| 20260505023554 | 57 | 302 | 4.0 | 8.0 | 0.00 | 0.00 | 0.00 | 82 | 1015.1 |